Austin Bergstrom, TX

6:14 AM CST on February 21, 2018 (GMT -0600)
Austin Bergstrom International

Weather History for KAUS - November, 2013

Change the Weather History Date:

Monday, November 11, 2013

  Actual Average Record
Temperature  
Mean Temperature 62 °F 60 °F  
Max Temperature 75 °F 73 °F 87 °F (2015)
Min Temperature 49 °F 47 °F 26 °F (1950)
Degree Days  
Heating Degree Days 3 6  
Month to date heating degree days 44 54  
Since 1 July heating degree days 80 105  
Cooling Degree Days 0 1  
Month to date cooling degree days 9 21  
Year to date cooling degree days 3012 2724  
Growing Degree Days 15 (Base 50)    
Moisture  
Dew Point 52 °F    
Average Humidity 67    
Maximum Humidity 93    
Minimum Humidity 41    
Precipitation  
Precipitation 0.00 in 0.10 in 1.91 in (1957)
Month to date precipitation 0.76 1.23  
Year to date precipitation 34.78 30.72  
Snow  
Snow 0.00 in - - ()
Month to date snowfall 0.0  
Since 1 July snowfall 0.0  
Since 1 September snowfall 0.0  
Snow Depth 0.00 in    
Sea Level Pressure  
Sea Level Pressure 30.22 in    
Wind  
Wind Speed 2 mph (NE)    
Max Wind Speed 8 mph    
Max Gust Speed 13 mph    
Visibility 10 miles    
Events      
T = Trace of Precipitation, MM = Missing Value Source: NWS Daily Summary

Daily Weather History Graph

Daily Weather History Graph

Search for Another Location

Airport or City:

Trip Planner

Search our weather history database for the weather conditions in past years. The results will help you decide how hot, cold, wet, or windy it might be!

Date:

Astronomy

Nov. 11, 2013 Rise Set
Actual Time 6:52 AM CST 5:36 PM CST
Civil Twilight 6:27 AM CST 6:01 PM CST
Nautical Twilight 5:59 AM CST 6:30 PM CST
Astronomical Twilight 5:30 AM CST 6:58 PM CST
Moon 1:54 PM CST (11/11) 1:04 AM CST (11/11)
Length of Visible Light 11h 33m
Length of Day
10h 43m
Waxing Gibbous, 66% of the Moon is Illuminated
Nov 11
Waxing Gibbous
Nov 17
Full
Nov 25
Last Quarter
Dec 2
New
Dec 9
First Quarter

Hourly Weather History & Observations

Time (CST) Temp. Dew Point Humidity Pressure Visibility Wind Dir Wind Speed Gust Speed Precip Events Conditions
12:53 AM 61.0 °F 53.1 °F 75% 30.25 in 10.0 mi NE 3.5 mph - N/A   Overcast
1:53 AM 59.0 °F 54.0 °F 83% 30.24 in 10.0 mi Calm Calm - N/A   Overcast
2:53 AM 60.1 °F 52.0 °F 75% 30.22 in 10.0 mi Calm Calm - N/A   Overcast
3:53 AM 57.9 °F 52.0 °F 81% 30.22 in 10.0 mi NE 3.5 mph - N/A   Scattered Clouds
4:53 AM 53.1 °F 50.0 °F 89% 30.21 in 10.0 mi Calm Calm - N/A   Clear
5:53 AM 53.1 °F 50.0 °F 89% 30.23 in 9.0 mi Calm Calm - N/A   Clear
6:53 AM 50.0 °F 48.0 °F 93% 30.25 in 9.0 mi Calm Calm - N/A   Scattered Clouds
7:53 AM 57.0 °F 51.1 °F 81% 30.27 in 10.0 mi North 3.5 mph - N/A   Mostly Cloudy
8:53 AM 60.1 °F 51.1 °F 72% 30.28 in 10.0 mi North 3.5 mph - N/A   Mostly Cloudy
9:53 AM 63.0 °F 52.0 °F 67% 30.28 in 10.0 mi Calm Calm - N/A   Mostly Cloudy
10:53 AM 64.9 °F 52.0 °F 63% 30.27 in 10.0 mi Calm Calm - N/A   Mostly Cloudy
11:53 AM 69.1 °F 51.1 °F 53% 30.24 in 10.0 mi Calm Calm - N/A   Mostly Cloudy
12:53 PM 73.0 °F 48.9 °F 42% 30.20 in 10.0 mi Calm Calm - N/A   Scattered Clouds
1:53 PM 73.0 °F 52.0 °F 48% 30.17 in 10.0 mi Variable 3.5 mph - N/A   Scattered Clouds
2:53 PM 73.9 °F 53.1 °F 48% 30.16 in 10.0 mi NNE 6.9 mph - N/A   Scattered Clouds
3:53 PM 73.9 °F 53.1 °F 48% 30.15 in 10.0 mi Calm Calm - N/A   Scattered Clouds
4:53 PM 72.0 °F 55.0 °F 55% 30.16 in 10.0 mi East 4.6 mph - N/A   Scattered Clouds
5:53 PM 68.0 °F 54.0 °F 61% 30.17 in 10.0 mi East 5.8 mph - N/A   Scattered Clouds
6:53 PM 66.0 °F 54.0 °F 65% 30.18 in 10.0 mi East 4.6 mph - N/A   Partly Cloudy
7:53 PM 57.0 °F 54.0 °F 89% 30.20 in 10.0 mi Calm Calm - N/A   Partly Cloudy
8:53 PM 55.9 °F 53.1 °F 90% 30.22 in 10.0 mi Calm Calm - N/A   Partly Cloudy
9:53 PM 55.0 °F 53.1 °F 93% 30.23 in 10.0 mi Calm Calm - N/A   Scattered Clouds
10:53 PM 53.1 °F 51.1 °F 93% 30.25 in 10.0 mi Calm Calm - N/A   Scattered Clouds
11:53 PM 52.0 °F 51.1 °F 97% 30.25 in 10.0 mi Calm Calm - N/A   Partly Cloudy